SCP
-0 -0 -0 0 0 0 -0 -0 -0 0 -0 0 0 0 0 0 0 0 -0 -0 -0 -0 -0 -0 -0 -0 -0 -0 -0 -0 -0 -0 -0 -0 -0 -0 -0 0 0 -0 -0 -0 -0
-0 -0 0 0 -0 0 -0 -0 0 0 -0 -0 0 0 0 0 0 -0 0 -0 -0 -0 -0 -0 -0 -0 -0 -0 -0 -0 -0 -0 0 -0 0 -0 -0 0 0 0 -0 0 -0
-0 -0 -0 0 0 0 0 0 0 0 -0 -0 0 0 0 0 0 0 -0 0 -0 -0 -0 -0 -0 -0 -0 -0 -0 -0 -0 -0 -0 -0 -0 0 0 0 0 0 0 0 0
-0 -0 -0 0 -0 -0 -0 -0 0 -0 -0 -0 -0 0 0 0 0 0 0 0 -0 -0 -0 -0 -0 -0 -0 -0 -0 -0 -0 0 -0 0 0 0 0 0 0 0 0 -0 0
-0 -0 -0 -0 -0 -0 -0 -0 -0 -0 -0 -0 -0 -0 0 0 0 0 0 -0 0 -0 0 0 -0 -0 -0 -0 -0 -0 0 0 -0 0 0 0 0 0 0 0 0 -0 0
-0 -0 -0 -0 -0 -0 0 0 -0 -0 -0 -0 0 0 0 0 0 0 0 0 0 0 0 0 0 0 0 0 0 0 0 0 -0 0 0 0 0 0 0 0 0 0 0
-0 -0 -0 -0 -0 0 0 0 0 -0 -0 -0 -0 0 0 0 0 0 0 0 0 0 0 0 0 0 0 0 0 0 0 0 0 0 0 0 0 0 0 0 0 0 0
-0 -0 -0 -0 -0 0 0 0 0 -0 -0 -0 -0 -0 -0 0 0 0 0 0 0 0 0 0 0 0 0 0 0 0 0 -0 -0 0 0 0 0 0 0 0 0 0 0
-0 -0 -0 -0 -0 0 0 0 0 0 0 0 0 0 0 -0 0 0 0 0 0 0 0 0 0 0 0 0 0 0 0 -0 -0 0 -0 0 0 0 0 0 0 0 0
0 -0 -0 -0 -0 -0 0 0 0 0 0 0 0 0 0 0 0 0 0 0 -0 -0 0 0 0 0 0 0 0 0 -0 -0 -0 0 0 0 0 -0 0 0 0 0 0
0 0 0 -0 0 0 0 0 0 0 0 0 0 0 0 0 0 0 0 0 0 0 0 0 0 0 0 0 0 0 -0 0 0 0 0 0 0 0 0 0 -0 -0 0
-0 -0 0 -0 -0 -0 0 -0 0 0 0 0 0 0 0 0 0 0 0 0 0 0 0 0 0 0 0 -0 0 0 0 0 0 0 0 0 0 0 0 -0 0 -0 -0
-0 -0 -0 -0 -0 -0 -0 -0 0 0 0 0 0 0 0 0 0 0 0 0 0 0 0 0 0 0 0 0 0 0 0 0 0 0 0 0 0 0 -0 0 -0 -0 -0
-0 -0 -0 -0 -0 -0 -0 0 0 0 0 0 0 0 0 0 0 0 0 0 0 0 0 0 0 0 0 0 0 0 0 0 0 0 0 0 0 0 -0 -0 -0 -0 -0
-0 -0 -0 -0 -0 -0 -0 -0 -0 0 0 0 -0 0 0 0 0 0 0 0 0 0 0 0 0 0 0 0 0 0 0 0 0 0 0 0 0 0 -0 -0 -0 -0 -0
0 0 0 -0 -0 -0 -0 -0 0 0 -0 0 -0 -0 -0 0 0 0 0 0 0 0 0 0 0 0 0 0 0 0 0 0 0 0 0 0 0 0 0 0 0 0 0
0 0 0 0 0 0 0 0 0 0 0 0 0 0 0 0 0 0 0 0 0 0 0 0 0 0 0 0 0 0 0 0 0 0 0 0 0 0 0 0 0 0 0
0 0 0 0 0 0 0 0 0 0 0 0 0 0 0 0 0 0 0 0 0 0 0 0 0 0 0 0 0 0 0 0 0 0 0 0 0 0 0 0 0 0 0
0 0 0 0 0 0 0 0 0 0 0 0 0 0 0 0 0 0 0 0 0 0 0 0 0 0 0 0 0 0 0 0 0 0 0 0 0 0 0 0 0 0 0
0 0 0 0 0 0 0 0 0 0 0 0 0 0 0 0 0 0 0 0 0 0 0 0 0 0 0 0 0 0 0 0 0 0 0 0 0 0 0 0 0 0 0
0 0 0 0 0 0 0 0 0 0 0 0 0 0 0 0 0 0 0 0 0 0 0 0 0 0 0 0 0 0 0 0 0 0 0 0 0 0 0 0 0 0 0
0 0 0 0 0 0 0 1 0 0 0 0 0 0 0 0 0 0 0 0 0 0 0 0 0 0 0 0 0 0 0 0 0 0 0 0 0 0 0 0 0 0 0
0 0 0 0 0 0 0 1 0 0 0 0 0 1 0 0 0 0 0 0 0 0 0 0 0 0 0 0 0 0 0 0 0 0 0 0 0 0 0 0 0 0 0
0 0 0 0 0 0 1 1 1 1 1 1 1 1 1 0 0 0 0 0 0 0 0 0 0 0 0 0 0 0 0 0 0 0 0 0 0 0 0 0 0 0 0
0 0 0 0 0 0 0 1 1 1 1 1 1 1 1 1 1 0 0 0 0 0 0 0 0 0 0 0 0 0 0 0 0 0 0 0 0 0 0 0 0 0 0
0 0 0 0 0 0 0 0 1 1 1 1 1 1 2 1 1 1 0 0 0 0 0 0 0 0 0 0 0 0 0 0 0 0 0 0 0 0 0 0 0 0 0
Wind_Speed_500mb
32 33 35 31 32 32 29 30 31 31 30 28 26 20 14 12 13 16 16 13 13 24 21 20 19 19 18 18 18 16 16 19 23 27 31 30 35 34 35 35 25 30 32
41 37 39 36 31 31 30 30 31 31 25 23 19 15 11 9 13 14 18 19 16 22 19 18 18 18 17 20 25 26 25 26 29 32 42 33 33 31 31 31 29 30 31
42 43 43 38 33 31 30 30 29 27 20 19 14 13 9 9 16 20 23 22 26 30 19 27 26 26 24 23 24 25 26 29 34 46 38 27 28 29 29 27 29 28 30
42 46 45 40 35 32 31 30 28 26 20 16 12 8 8 10 17 21 27 26 27 24 22 24 27 27 25 22 23 25 26 27 33 38 26 23 24 27 26 26 26 26 28
41 43 43 41 36 31 28 31 29 25 17 16 15 6 8 10 16 21 23 25 25 22 20 20 25 21 19 18 20 22 23 25 32 25 20 24 17 22 25 24 23 23 24
40 35 43 40 36 32 29 29 30 27 22 15 12 11 10 16 18 21 21 23 22 20 17 17 20 17 15 15 16 16 19 21 28 18 19 16 14 20 21 20 20 21 21
41 37 44 40 36 31 29 28 26 22 19 15 13 14 13 16 16 15 18 19 19 17 14 13 13 12 11 11 11 13 14 15 16 13 13 10 14 15 16 17 18 17 18
40 38 41 39 36 31 29 26 23 21 19 18 21 16 17 14 16 18 17 14 15 13 10 9 7 6 5 5 6 8 9 10 12 10 10 7 10 11 12 13 13 13 14
38 38 37 37 35 32 28 28 27 23 23 22 18 22 21 15 20 20 19 13 10 9 7 6 5 3 1 1 3 5 6 6 7 6 6 5 8 8 8 8 9 10 10
39 36 35 34 34 33 31 28 28 28 24 20 22 21 17 18 17 16 16 15 13 11 10 9 8 5 4 4 5 5 6 6 5 8 8 9 8 7 7 7 7 8 8
41 39 36 33 30 29 29 28 26 25 27 25 23 23 21 14 15 16 13 18 13 15 14 10 9 9 9 9 9 10 10 8 10 10 9 12 12 11 11 11 11 10 10
47 44 40 36 33 31 27 30 28 24 23 25 22 19 21 18 17 18 23 19 15 11 9 7 8 8 7 6 13 11 10 13 13 14 16 15 16 15 15 15 14 15 17
45 43 42 40 37 35 32 28 27 25 23 24 22 20 20 22 24 24 23 21 18 16 14 12 12 11 9 13 13 14 16 16 13 16 18 17 19 20 19 19 19 19 19
49 45 42 39 39 38 32 31 27 26 26 27 28 26 23 23 23 20 19 18 17 18 16 19 17 18 18 18 19 19 20 19 18 19 20 20 22 22 22 22 22 22 21
47 48 50 44 40 38 37 32 30 30 31 27 27 32 28 24 24 23 23 22 22 20 21 20 20 20 20 19 20 21 20 21 22 22 23 24 23 24 24 24 23 24 23
49 48 50 51 43 40 39 35 33 31 29 31 30 30 31 27 26 25 25 25 24 24 22 23 21 21 21 20 19 20 20 22 23 22 22 23 21 24 25 25 24 24 23
50 43 52 51 49 42 41 38 34 34 34 32 33 33 33 32 31 29 28 29 27 27 26 26 25 25 24 23 22 22 23 24 25 25 24 24 26 26 26 27 28 28 27
44 47 47 55 55 46 40 39 36 35 36 36 35 36 37 36 35 34 34 34 31 31 31 30 27 26 24 20 18 19 24 28 27 26 25 25 26 26 26 25 28 29 27
43 44 46 50 53 53 44 38 38 36 38 36 35 36 38 39 39 38 37 35 33 36 35 33 33 30 27 24 26 27 30 32 28 26 25 27 24 22 19 17 18 19 19
40 40 41 43 48 50 45 43 41 42 41 39 39 40 40 40 40 41 41 39 37 40 38 39 34 31 31 32 32 33 33 35 31 25 26 27 23 17 15 12 10 9 13
43 45 45 46 48 51 54 53 55 56 51 46 46 45 44 45 44 44 45 42 42 43 40 38 32 37 36 34 35 33 31 28 31 27 25 29 22 17 16 15 14 15 20
48 52 51 50 49 54 55 54 59 60 58 51 47 50 49 50 48 48 47 47 45 45 41 40 41 38 39 37 32 25 22 15 24 19 20 18 16 22 20 20 21 21 29
46 50 53 55 51 52 54 44 53 45 49 55 63 61 57 51 49 51 50 47 46 46 45 40 44 42 46 35 38 33 13 14 12 19 23 25 19 21 25 22 28 33 33
50 43 45 47 52 55 56 58 60 63 65 67 58 56 56 52 52 53 50 48 48 48 49 46 42 45 44 43 39 41 42 36 21 17 21 22 17 24 31 33 38 37 34
38 47 52 54 53 56 61 68 70 70 73 66 57 59 58 59 57 55 52 49 51 54 53 51 48 47 51 51 52 46 44 42 42 45 32 34 34 43 45 44 43 32 34
51 55 56 57 58 60 64 70 75 78 77 75 71 59 66 67 64 62 60 57 54 55 56 53 50 52 51 56 55 57 52 44 44 44 40 42 42 38 33 44 36 37 37
Wind_Direction_500mb
161 166 157 152 152 152 148 144 143 140 138 140 136 129 131 142 166 170 173 169 146 150 132 129 115 114 103 94 91 94 89 73 71 72 63 68 72 63 76 82 58 62 62
158 165 155 152 155 154 148 142 142 142 143 146 141 134 122 126 154 160 166 175 168 154 151 139 124 113 103 97 92 90 85 80 76 73 58 50 68 67 68 66 70 58 64
157 161 156 155 156 155 154 150 147 148 145 148 146 130 113 109 137 139 136 147 136 144 144 121 114 93 96 95 93 83 82 81 81 76 66 52 59 65 71 69 68 66 65
156 161 160 159 160 161 158 155 151 152 163 162 152 141 116 121 134 132 134 132 126 125 107 105 109 98 92 91 85 80 79 81 80 71 72 62 53 66 68 68 65 64 64
157 160 165 164 166 164 162 159 160 163 179 164 152 165 128 137 140 136 133 133 123 121 115 109 113 107 97 86 82 78 76 78 75 68 79 86 54 62 64 65 66 66 64
154 164 176 170 170 170 170 170 173 180 196 202 183 169 149 135 136 142 132 132 135 130 133 121 113 111 102 92 85 78 77 78 70 70 74 45 64 61 62 63 63 63 62
156 169 169 172 175 178 178 178 179 183 183 179 168 167 159 153 153 139 152 142 145 143 135 135 121 112 99 89 81 72 69 69 81 71 67 63 48 54 54 53 55 57 58
159 168 167 169 177 183 185 183 179 184 179 173 169 161 163 156 150 151 152 152 155 160 148 146 140 124 105 80 65 60 56 56 61 47 49 33 30 33 42 42 43 44 47
165 163 169 170 172 178 182 182 186 185 189 171 179 176 182 180 171 168 165 162 182 173 176 184 178 181 192 4 13 20 28 32 55 6 18 8 3 2 12 18 21 24 25
169 168 171 176 181 185 188 192 196 202 202 199 186 187 191 187 188 186 186 179 188 194 201 216 228 242 264 287 304 324 337 340 353 326 327 301 310 316 322 334 342 355 352
175 174 176 181 181 184 190 189 190 199 210 213 206 213 212 197 211 221 189 221 223 213 222 228 242 257 271 282 296 305 311 311 302 298 290 297 299 297 308 315 319 323 318
181 180 180 182 181 188 182 195 192 193 196 199 203 210 201 191 210 211 234 232 241 239 244 239 249 263 271 302 311 301 304 291 293 285 281 294 295 296 300 303 308 308 309
184 184 185 186 187 189 184 206 193 199 196 200 205 206 199 202 216 216 230 234 241 241 248 251 249 253 261 250 261 279 279 289 289 290 288 291 292 295 297 299 301 300 299
189 190 189 191 191 193 193 192 195 202 201 203 206 208 210 212 219 217 217 229 233 237 235 236 245 250 260 271 274 278 280 284 285 283 287 293 294 295 298 299 298 297 296
198 197 196 191 197 198 196 198 199 202 208 206 213 215 211 215 223 221 224 227 235 239 243 242 248 256 268 274 278 280 284 286 286 288 292 296 293 294 295 294 294 294 293
202 203 204 198 198 202 205 203 203 205 215 213 214 219 218 216 225 228 231 235 237 240 245 245 248 256 264 269 277 282 284 285 289 293 295 296 295 290 289 289 290 290 289
210 209 211 207 201 205 210 212 210 217 215 222 225 230 233 230 230 231 235 239 242 244 245 248 249 253 258 267 271 275 279 283 285 288 291 292 291 287 285 286 284 282 281
208 207 216 215 212 207 210 213 217 220 223 226 230 234 236 236 236 238 240 242 244 245 247 247 249 253 260 258 262 271 279 283 284 286 289 289 288 289 289 282 278 273 270
209 208 215 216 214 216 212 214 218 221 225 224 226 233 238 238 239 240 244 245 245 247 249 249 252 253 263 268 272 274 281 284 285 281 284 287 286 282 276 282 280 268 256
212 210 211 217 214 214 215 217 222 226 226 226 228 231 236 240 241 243 246 248 246 245 248 250 249 261 263 269 274 279 282 283 283 276 278 269 275 257 255 261 262 249 233
211 210 212 213 216 215 216 219 223 229 231 230 232 236 236 240 243 244 247 246 244 246 255 256 251 252 257 265 274 284 293 296 287 275 268 263 243 252 244 254 246 244 244
217 219 216 217 218 220 225 225 232 232 237 236 240 240 241 242 242 246 247 248 244 249 247 244 245 248 256 254 259 273 285 290 279 277 253 240 240 263 255 246 238 242 260
225 227 227 224 220 223 226 223 239 231 242 241 238 242 245 247 245 243 249 248 244 241 245 244 247 242 245 248 248 244 260 241 238 269 267 250 251 249 247 241 247 258 265
235 231 233 236 230 228 225 226 234 241 236 245 247 248 247 244 243 243 247 250 244 244 242 243 247 249 243 243 251 241 243 247 251 269 248 254 264 244 239 256 271 262 263
240 249 242 237 239 238 236 237 240 239 250 251 251 248 248 246 244 244 243 247 245 244 249 248 246 246 247 246 246 252 255 252 254 253 255 259 258 257 255 264 250 253 255
249 252 253 251 248 249 247 245 245 247 251 252 249 242 247 247 246 242 242 243 245 245 248 252 251 249 252 250 252 250 250 248 254 249 247 257 257 246 240 244 244 257 258
Wind_Speed_850mb
32 33 35 31 32 32 29 30 31 31 30 28 26 20 14 12 13 16 16 13 13 24 21 20 19 19 18 18 18 16 16 19 23 27 31 30 35 34 35 35 25 30 32
41 37 39 36 31 31 30 30 31 31 25 23 19 15 11 9 13 14 18 19 16 22 19 18 18 18 17 20 25 26 25 26 29 32 42 33 33 31 31 31 29 30 31
42 43 43 38 33 31 30 30 29 27 20 19 14 13 9 9 16 20 23 22 26 30 19 27 26 26 24 23 24 25 26 29 34 46 38 27 28 29 29 27 29 28 30
42 46 45 40 35 32 31 30 28 26 20 16 12 8 8 10 17 21 27 26 27 24 22 24 27 27 25 22 23 25 26 27 33 38 26 23 24 27 26 26 26 26 28
41 43 43 41 36 31 28 31 29 25 17 16 15 6 8 10 16 21 23 25 25 22 20 20 25 21 19 18 20 22 23 25 32 25 20 24 17 22 25 24 23 23 24
40 35 43 40 36 32 29 29 30 27 22 15 12 11 10 16 18 21 21 23 22 20 17 17 20 17 15 15 16 16 19 21 28 18 19 16 14 20 21 20 20 21 21
41 37 44 40 36 31 29 28 26 22 19 15 13 14 13 16 16 15 18 19 19 17 14 13 13 12 11 11 11 13 14 15 16 13 13 10 14 15 16 17 18 17 18
40 38 41 39 36 31 29 26 23 21 19 18 21 16 17 14 16 18 17 14 15 13 10 9 7 6 5 5 6 8 9 10 12 10 10 7 10 11 12 13 13 13 14
38 38 37 37 35 32 28 28 27 23 23 22 18 22 21 15 20 20 19 13 10 9 7 6 5 3 1 1 3 5 6 6 7 6 6 5 8 8 8 8 9 10 10
39 36 35 34 34 33 31 28 28 28 24 20 22 21 17 18 17 16 16 15 13 11 10 9 8 5 4 4 5 5 6 6 5 8 8 9 8 7 7 7 7 8 8
41 39 36 33 30 29 29 28 26 25 27 25 23 23 21 14 15 16 13 18 13 15 14 10 9 9 9 9 9 10 10 8 10 10 9 12 12 11 11 11 11 10 10
47 44 40 36 33 31 27 30 28 24 23 25 22 19 21 18 17 18 23 19 15 11 9 7 8 8 7 6 13 11 10 13 13 14 16 15 16 15 15 15 14 15 17
45 43 42 40 37 35 32 28 27 25 23 24 22 20 20 22 24 24 23 21 18 16 14 12 12 11 9 13 13 14 16 16 13 16 18 17 19 20 19 19 19 19 19
49 45 42 39 39 38 32 31 27 26 26 27 28 26 23 23 23 20 19 18 17 18 16 19 17 18 18 18 19 19 20 19 18 19 20 20 22 22 22 22 22 22 21
47 48 50 44 40 38 37 32 30 30 31 27 27 32 28 24 24 23 23 22 22 20 21 20 20 20 20 19 20 21 20 21 22 22 23 24 23 24 24 24 23 24 23
49 48 50 51 43 40 39 35 33 31 29 31 30 30 31 27 26 25 25 25 24 24 22 23 21 21 21 20 19 20 20 22 23 22 22 23 21 24 25 25 24 24 23
50 43 52 51 49 42 41 38 34 34 34 32 33 33 33 32 31 29 28 29 27 27 26 26 25 25 24 23 22 22 23 24 25 25 24 24 26 26 26 27 28 28 27
44 47 47 55 55 46 40 39 36 35 36 36 35 36 37 36 35 34 34 34 31 31 31 30 27 26 24 20 18 19 24 28 27 26 25 25 26 26 26 25 28 29 27
43 44 46 50 53 53 44 38 38 36 38 36 35 36 38 39 39 38 37 35 33 36 35 33 33 30 27 24 26 27 30 32 28 26 25 27 24 22 19 17 18 19 19
40 40 41 43 48 50 45 43 41 42 41 39 39 40 40 40 40 41 41 39 37 40 38 39 34 31 31 32 32 33 33 35 31 25 26 27 23 17 15 12 10 9 13
43 45 45 46 48 51 54 53 55 56 51 46 46 45 44 45 44 44 45 42 42 43 40 38 32 37 36 34 35 33 31 28 31 27 25 29 22 17 16 15 14 15 20
48 52 51 50 49 54 55 54 59 60 58 51 47 50 49 50 48 48 47 47 45 45 41 40 41 38 39 37 32 25 22 15 24 19 20 18 16 22 20 20 21 21 29
46 50 53 55 51 52 54 44 53 45 49 55 63 61 57 51 49 51 50 47 46 46 45 40 44 42 46 35 38 33 13 14 12 19 23 25 19 21 25 22 28 33 33
50 43 45 47 52 55 56 58 60 63 65 67 58 56 56 52 52 53 50 48 48 48 49 46 42 45 44 43 39 41 42 36 21 17 21 22 17 24 31 33 38 37 34
38 47 52 54 53 56 61 68 70 70 73 66 57 59 58 59 57 55 52 49 51 54 53 51 48 47 51 51 52 46 44 42 42 45 32 34 34 43 45 44 43 32 34
51 55 56 57 58 60 64 70 75 78 77 75 71 59 66 67 64 62 60 57 54 55 56 53 50 52 51 56 55 57 52 44 44 44 40 42 42 38 33 44 36 37 37
Wind_Direction_850mb
161 166 157 152 152 152 148 144 143 140 138 140 136 129 131 142 166 170 173 169 146 150 132 129 115 114 103 94 91 94 89 73 71 72 63 68 72 63 76 82 58 62 62
158 165 155 152 155 154 148 142 142 142 143 146 141 134 122 126 154 160 166 175 168 154 151 139 124 113 103 97 92 90 85 80 76 73 58 50 68 67 68 66 70 58 64
157 161 156 155 156 155 154 150 147 148 145 148 146 130 113 109 137 139 136 147 136 144 144 121 114 93 96 95 93 83 82 81 81 76 66 52 59 65 71 69 68 66 65
156 161 160 159 160 161 158 155 151 152 163 162 152 141 116 121 134 132 134 132 126 125 107 105 109 98 92 91 85 80 79 81 80 71 72 62 53 66 68 68 65 64 64
157 160 165 164 166 164 162 159 160 163 179 164 152 165 128 137 140 136 133 133 123 121 115 109 113 107 97 86 82 78 76 78 75 68 79 86 54 62 64 65 66 66 64
154 164 176 170 170 170 170 170 173 180 196 202 183 169 149 135 136 142 132 132 135 130 133 121 113 111 102 92 85 78 77 78 70 70 74 45 64 61 62 63 63 63 62
156 169 169 172 175 178 178 178 179 183 183 179 168 167 159 153 153 139 152 142 145 143 135 135 121 112 99 89 81 72 69 69 81 71 67 63 48 54 54 53 55 57 58
159 168 167 169 177 183 185 183 179 184 179 173 169 161 163 156 150 151 152 152 155 160 148 146 140 124 105 80 65 60 56 56 61 47 49 33 30 33 42 42 43 44 47
165 163 169 170 172 178 182 182 186 185 189 171 179 176 182 180 171 168 165 162 182 173 176 184 178 181 192 4 13 20 28 32 55 6 18 8 3 2 12 18 21 24 25
169 168 171 176 181 185 188 192 196 202 202 199 186 187 191 187 188 186 186 179 188 194 201 216 228 242 264 287 304 324 337 340 353 326 327 301 310 316 322 334 342 355 352
175 174 176 181 181 184 190 189 190 199 210 213 206 213 212 197 211 221 189 221 223 213 222 228 242 257 271 282 296 305 311 311 302 298 290 297 299 297 308 315 319 323 318
181 180 180 182 181 188 182 195 192 193 196 199 203 210 201 191 210 211 234 232 241 239 244 239 249 263 271 302 311 301 304 291 293 285 281 294 295 296 300 303 308 308 309
184 184 185 186 187 189 184 206 193 199 196 200 205 206 199 202 216 216 230 234 241 241 248 251 249 253 261 250 261 279 279 289 289 290 288 291 292 295 297 299 301 300 299
189 190 189 191 191 193 193 192 195 202 201 203 206 208 210 212 219 217 217 229 233 237 235 236 245 250 260 271 274 278 280 284 285 283 287 293 294 295 298 299 298 297 296
198 197 196 191 197 198 196 198 199 202 208 206 213 215 211 215 223 221 224 227 235 239 243 242 248 256 268 274 278 280 284 286 286 288 292 296 293 294 295 294 294 294 293
202 203 204 198 198 202 205 203 203 205 215 213 214 219 218 216 225 228 231 235 237 240 245 245 248 256 264 269 277 282 284 285 289 293 295 296 295 290 289 289 290 290 289
210 209 211 207 201 205 210 212 210 217 215 222 225 230 233 230 230 231 235 239 242 244 245 248 249 253 258 267 271 275 279 283 285 288 291 292 291 287 285 286 284 282 281
208 207 216 215 212 207 210 213 217 220 223 226 230 234 236 236 236 238 240 242 244 245 247 247 249 253 260 258 262 271 279 283 284 286 289 289 288 289 289 282 278 273 270
209 208 215 216 214 216 212 214 218 221 225 224 226 233 238 238 239 240 244 245 245 247 249 249 252 253 263 268 272 274 281 284 285 281 284 287 286 282 276 282 280 268 256
212 210 211 217 214 214 215 217 222 226 226 226 228 231 236 240 241 243 246 248 246 245 248 250 249 261 263 269 274 279 282 283 283 276 278 269 275 257 255 261 262 249 233
211 210 212 213 216 215 216 219 223 229 231 230 232 236 236 240 243 244 247 246 244 246 255 256 251 252 257 265 274 284 293 296 287 275 268 263 243 252 244 254 246 244 244
217 219 216 217 218 220 225 225 232 232 237 236 240 240 241 242 242 246 247 248 244 249 247 244 245 248 256 254 259 273 285 290 279 277 253 240 240 263 255 246 238 242 260
225 227 227 224 220 223 226 223 239 231 242 241 238 242 245 247 245 243 249 248 244 241 245 244 247 242 245 248 248 244 260 241 238 269 267 250 251 249 247 241 247 258 265
235 231 233 236 230 228 225 226 234 241 236 245 247 248 247 244 243 243 247 250 244 244 242 243 247 249 243 243 251 241 243 247 251 269 248 254 264 244 239 256 271 262 263
240 249 242 237 239 238 236 237 240 239 250 251 251 248 248 246 244 244 243 247 245 244 249 248 246 246 247 246 246 252 255 252 254 253 255 259 258 257 255 264 250 253 255
249 252 253 251 248 249 247 245 245 247 251 252 249 242 247 247 246 242 242 243 245 245 248 252 251 249 252 250 252 250 250 248 254 249 247 257 257 246 240 244 244 257 258